Flag Weather past 2 weeks in Windsor, Ontario, Canada

Now
32 °F

Snow flurries. Mostly cloudy.


Feels Like: 26 °F
Forecast: 28 / 35 °F
Wind: 7 mph from North

Location: Windsor Weather Station

Current Time: Nov 26, 2014 at 9:10:43 PM

Latest Report: Nov 26, 2014 at 8:00 PM


Visibility: 10 mi

Pressure: 30.09 "Hg

Humidity: 75%

Dew point: 25 °F

Location of WindsorLocation

Historic Weather in Windsor — Graph

°F

Windsor temperature yesterday

Maximum temperature yesterday: 36 °F (at 12:00 AM)
Minimum temperature yesterday: 30 °F (at 5:00 PM)
Average temperature yesterday: 32 °F

Past Weeks' High & Low Weather Summary

 TemperatureHumidityPressure
High59 °F (Nov 24, 1:00 PM)100% (Nov 16, 7:50 PM)30.50 "Hg (Nov 16, 7:50 PM)
Low12 °F (Nov 18, 4:00 AM)50% (Nov 21, 12:00 PM)29.07 "Hg (Nov 24, 3:48 AM)
Average31 °F75%30.02 "Hg
* Reported Nov 11 8:00 PM — Nov 26 8:00 PM, Windsor, Weather by CustomWeather, © 2014

Note: Actual official high and low records may vary slightly from our data, if they occured in-between our weather recording intervals... More about our weather records

Advertising

Windsor weather history for previous 24 hours

 ConditionsComfort  
Time TempWeatherWind HumidityBarometerVisibility
8:00 PM
Nov 26
32 °FSnow flurries. Mostly cloudy.7 mph75%30.09 "Hg10 mi
7:00 PM32 °FSnow flurries. Overcast.9 mph75%30.10 "Hg7 mi
6:00 PM32 °FSnow flurries. Overcast.7 mph75%30.11 "Hg7 mi
5:00 PM34 °FSnow flurries. Overcast.6 mph75%30.11 "Hg8 mi
4:00 PM34 °FOvercast.8 mph70%30.10 "Hg12 mi
3:00 PM34 °FOvercast.8 mph70%30.11 "Hg15 mi
2:00 PM34 °FMostly cloudy.8 mph70%30.12 "Hg15 mi
1:00 PM34 °FOvercast.9 mph65%30.13 "Hg15 mi
12:00 PM32 °FOvercast.9 mph69%30.15 "Hg15 mi
11:00 AM32 °FOvercast.9 mph69%30.18 "Hg15 mi
10:00 AM32 °FOvercast.3 mph75%30.19 "Hg12 mi
9:00 AM30 °FOvercast.2 mph75%30.20 "Hg12 mi
8:00 AM30 °FOvercast.No wind75%30.20 "Hg15 mi
7:00 AM30 °FOvercast.No wind75%30.19 "Hg15 mi
6:00 AM30 °FOvercast.No wind75%30.19 "Hg15 mi
5:00 AM30 °FOvercast.5 mph75%30.21 "Hg15 mi
4:00 AM30 °FOvercast.3 mph75%30.21 "Hg15 mi
3:00 AM30 °FOvercast.2 mph75%30.21 "Hg15 mi
2:00 AM30 °FOvercast.2 mph75%30.21 "Hg15 mi
1:00 AM30 °FOvercast.5 mph75%30.22 "Hg15 mi
12:00 AM30 °FOvercast.7 mph75%30.23 "Hg15 mi
11:00 PM
Nov 25
30 °FOvercast.7 mph75%30.23 "Hg15 mi
10:00 PM30 °FOvercast.7 mph75%30.22 "Hg12 mi
9:00 PM30 °FOvercast.7 mph75%30.21 "Hg12 mi
Weather by CustomWeather, © 2014

See weather overviewHow to use our weather pages